TimeCDT,TemperatureF,Dew PointF,Humidity,Sea Level PressureIn,VisibilityMPH,Wind Direction,Wind SpeedMPH,Gust SpeedMPH,PrecipitationIn,Events,Conditions,WindDirDegrees,DateUTC
12:14 AM,75.2,69.1,81,30.01,10.0,Calm,Calm,-,N/A,,Clear,0,2013-08-29 05:14:00
12:34 AM,75.2,69.6,83,30.01,10.0,Calm,Calm,-,N/A,,Scattered Clouds,0,2013-08-29 05:34:00
12:54 AM,74.8,69.3,83,30.02,10.0,Calm,Calm,-,N/A,,Scattered Clouds,0,2013-08-29 05:54:00
1:14 AM,74.3,69.3,84,30.01,10.0,Calm,Calm,-,N/A,,Scattered Clouds,0,2013-08-29 06:14:00
1:34 AM,74.3,69.4,85,30.01,10.0,Calm,Calm,-,N/A,,Scattered Clouds,0,2013-08-29 06:34:00
1:54 AM,72.7,68.4,86,30.01,7.0,Calm,Calm,-,N/A,,Clear,0,2013-08-29 06:54:00
2:14 AM,72.5,68.5,87,30.01,7.0,Calm,Calm,-,N/A,,Scattered Clouds,0,2013-08-29 07:14:00
2:34 AM,71.8,68.4,89,30.00,7.0,Calm,Calm,-,N/A,,Scattered Clouds,0,2013-08-29 07:34:00
2:54 AM,72.5,69.1,89,30.00,7.0,Calm,Calm,-,N/A,,Mostly Cloudy,0,2013-08-29 07:54:00
3:14 AM,72.7,69.1,88,30.00,7.0,Calm,Calm,-,N/A,,Overcast,0,2013-08-29 08:14:00
3:34 AM,73.0,69.4,88,30.01,7.0,Calm,Calm,-,N/A,,Overcast,0,2013-08-29 08:34:00
3:54 AM,73.4,69.8,88,30.01,7.0,Calm,Calm,-,N/A,,Overcast,0,2013-08-29 08:54:00
4:14 AM,74.3,70.5,88,29.99,7.0,Calm,Calm,-,N/A,,Overcast,0,2013-08-29 09:14:00
4:34 AM,73.9,70.2,88,29.98,7.0,ENE,3.5,-,N/A,,Overcast,70,2013-08-29 09:34:00
4:54 AM,73.6,70.0,88,29.99,7.0,ENE,5.8,-,N/A,,Overcast,60,2013-08-29 09:54:00
5:14 AM,74.3,70.3,87,29.99,10.0,East,4.6,-,N/A,,Overcast,90,2013-08-29 10:14:00
5:34 AM,74.5,70.7,88,29.99,10.0,Calm,Calm,-,N/A,,Overcast,0,2013-08-29 10:34:00
5:54 AM,74.7,70.7,87,30.00,10.0,East,4.6,-,N/A,,Overcast,90,2013-08-29 10:54:00
6:14 AM,75.7,71.8,87,30.00,10.0,Calm,Calm,-,N/A,,Overcast,0,2013-08-29 11:14:00
6:34 AM,75.6,71.8,88,30.00,10.0,Calm,Calm,-,N/A,,Scattered Clouds,0,2013-08-29 11:34:00
6:54 AM,74.5,70.9,88,30.00,7.0,Calm,Calm,-,N/A,,Clear,0,2013-08-29 11:54:00
7:14 AM,74.3,71.2,90,29.99,7.0,Calm,Calm,-,N/A,,Clear,0,2013-08-29 12:14:00
7:34 AM,74.8,71.6,90,29.99,7.0,Calm,Calm,-,N/A,,Clear,0,2013-08-29 12:34:00
7:54 AM,76.1,72.5,89,29.99,7.0,SE,3.5,-,N/A,,Clear,140,2013-08-29 12:54:00
8:14 AM,76.3,71.8,86,29.99,7.0,SSE,4.6,-,N/A,,Scattered Clouds,160,2013-08-29 13:14:00
8:34 AM,77.0,72.0,84,29.99,7.0,South,5.8,-,N/A,,Scattered Clouds,170,2013-08-29 13:34:00
8:54 AM,78.4,72.5,82,29.98,5.0,SSE,6.9,-,N/A,,Haze,150,2013-08-29 13:54:00
9:14 AM,79.7,72.3,78,29.98,7.0,SSE,6.9,-,N/A,,Clear,160,2013-08-29 14:14:00
9:34 AM,80.6,72.0,75,29.97,10.0,SSE,5.8,-,N/A,,Clear,160,2013-08-29 14:34:00
9:54 AM,81.5,72.5,74,29.98,10.0,SSE,4.6,-,N/A,,Clear,150,2013-08-29 14:54:00
10:14 AM,83.1,72.5,70,29.98,10.0,SSE,4.6,-,N/A,,Clear,160,2013-08-29 15:14:00
10:34 AM,83.3,72.1,69,29.97,10.0,SE,4.6,-,N/A,,Clear,140,2013-08-29 15:34:00
10:54 AM,84.7,72.1,66,29.97,10.0,SSE,6.9,-,N/A,,Clear,150,2013-08-29 15:54:00
11:14 AM,85.1,72.3,65,29.97,10.0,South,5.8,-,N/A,,Clear,170,2013-08-29 16:14:00
11:34 AM,86.4,72.3,63,29.97,10.0,SE,8.1,-,N/A,,Clear,130,2013-08-29 16:34:00
11:54 AM,86.0,72.5,64,29.97,10.0,SSE,6.9,-,N/A,,Clear,160,2013-08-29 16:54:00
12:14 PM,86.9,72.7,62,29.97,10.0,SSE,4.6,-,N/A,,Clear,160,2013-08-29 17:14:00
12:34 PM,87.1,72.1,61,29.97,10.0,SSW,8.1,-,N/A,,Clear,200,2013-08-29 17:34:00
12:54 PM,88.9,71.1,55,29.96,10.0,SSW,9.2,-,N/A,,Scattered Clouds,200,2013-08-29 17:54:00
1:14 PM,90.0,70.5,53,29.96,10.0,South,6.9,-,N/A,,Mostly Cloudy,190,2013-08-29 18:14:00
1:34 PM,89.2,69.6,52,29.95,10.0,South,6.9,-,N/A,,Scattered Clouds,180,2013-08-29 18:34:00
1:54 PM,90.3,68.5,49,29.94,10.0,South,5.8,-,N/A,,Clear,170,2013-08-29 18:54:00
2:14 PM,90.5,66.7,45,29.94,10.0,SSE,9.2,-,N/A,,Clear,160,2013-08-29 19:14:00
2:34 PM,88.3,67.8,50,29.93,10.0,SSE,6.9,-,N/A,,Clear,160,2013-08-29 19:34:00
2:54 PM,88.3,67.8,50,29.91,10.0,South,9.2,-,N/A,,Clear,170,2013-08-29 19:54:00
3:14 PM,88.3,67.3,50,29.89,10.0,SSE,8.1,-,N/A,,Clear,160,2013-08-29 20:14:00
3:34 PM,87.3,67.8,52,29.89,10.0,SSE,9.2,-,N/A,,Clear,160,2013-08-29 20:34:00
3:54 PM,87.1,68.2,53,29.88,10.0,South,4.6,-,N/A,,Clear,170,2013-08-29 20:54:00
4:14 PM,86.9,68.9,55,29.89,10.0,South,8.1,-,N/A,,Clear,180,2013-08-29 21:14:00
4:34 PM,87.6,69.8,55,29.89,10.0,South,6.9,-,N/A,,Clear,180,2013-08-29 21:34:00
4:54 PM,87.3,69.4,55,29.88,10.0,South,4.6,-,N/A,,Clear,180,2013-08-29 21:54:00
5:14 PM,86.9,69.6,56,29.89,10.0,SSW,5.8,-,N/A,,Clear,200,2013-08-29 22:14:00
5:34 PM,87.8,68.9,53,29.89,10.0,SSW,5.8,-,N/A,,Clear,200,2013-08-29 22:34:00
5:54 PM,88.3,68.0,51,29.89,10.0,SSW,6.9,-,N/A,,Clear,200,2013-08-29 22:54:00
6:14 PM,87.4,67.1,51,29.89,10.0,South,6.9,-,N/A,,Scattered Clouds,190,2013-08-29 23:14:00
6:34 PM,87.4,67.8,52,29.89,10.0,South,6.9,-,N/A,,Scattered Clouds,190,2013-08-29 23:34:00
6:54 PM,86.5,68.0,54,29.88,10.0,South,4.6,-,N/A,,Clear,170,2013-08-29 23:54:00
7:14 PM,85.8,67.6,54,29.87,10.0,South,4.6,-,N/A,,Clear,180,2013-08-30 00:14:00
7:34 PM,84.7,68.2,57,29.87,10.0,South,5.8,-,N/A,,Clear,180,2013-08-30 00:34:00
7:54 PM,83.3,68.4,61,29.87,10.0,South,4.6,-,N/A,,Clear,170,2013-08-30 00:54:00
8:14 PM,82.4,68.2,62,29.86,10.0,South,4.6,-,N/A,,Clear,170,2013-08-30 01:14:00
8:34 PM,81.5,68.2,64,29.87,10.0,Calm,Calm,-,N/A,,Clear,0,2013-08-30 01:34:00
8:54 PM,79.9,68.2,67,29.87,10.0,Calm,Calm,-,N/A,,Clear,0,2013-08-30 01:54:00
9:14 PM,79.2,68.5,70,29.87,10.0,Calm,Calm,-,N/A,,Clear,0,2013-08-30 02:14:00
9:34 PM,78.4,68.2,71,29.87,10.0,Calm,Calm,-,N/A,,Clear,0,2013-08-30 02:34:00
9:54 PM,78.4,68.0,70,29.87,10.0,SSE,3.5,-,N/A,,Scattered Clouds,150,2013-08-30 02:54:00
10:13 PM,78.3,68.0,71,29.87,10.0,SSE,3.5,-,N/A,,Scattered Clouds,150,2013-08-30 03:13:00
10:34 PM,78.3,67.3,69,29.87,10.0,SSE,3.5,-,N/A,,Mostly Cloudy,150,2013-08-30 03:34:00
10:54 PM,78.4,67.1,68,29.87,10.0,SSE,4.6,-,N/A,,Mostly Cloudy,160,2013-08-30 03:54:00
11:13 PM,78.8,66.7,66,29.86,10.0,South,4.6,-,N/A,,Scattered Clouds,180,2013-08-30 04:13:00
11:34 PM,78.8,66.9,67,29.86,10.0,Calm,Calm,-,N/A,,Mostly Cloudy,0,2013-08-30 04:34:00
11:54 PM,79.7,67.6,66,29.86,10.0,South,3.5,-,N/A,,Mostly Cloudy,180,2013-08-30 04:54:00